This demonstration page uses our WeatherBlox Daily Observations layout. Learn more.

Left ArrowRight Arrow

Hourly Observations for January 4, 2015

Temp ( °F °C ) Dew Point ( °F °C ) Humidity (%) Winds ( mph kmh ) Pressure ( in mb ) Visibility ( mi km ) Precip ( " mm )
12:53 am 00:53 Cloudy with Light Rain 60 15.6 59 15 96 96 E 3 6 30.06 1018 8 13 0.11 2.79
1:50 am 01:50 Cloudy 61 16 57 14 88 88 E 6 9 30.06 1018 10 16 0.00 0.00
1:53 am 01:53 Cloudy 60 15.6 59 15 96 96 Calm 30.06 1018 10 16 0.00 0.03
2:53 am 02:53 Cloudy 60 15.6 59 15 96 96 E 5 7 30.05 1018 10 16 0.00 0.03
3:53 am 03:53 Cloudy 60 15.6 58 14.4 93 93 N 3 6 30.03 1017 10 16 0.00 0.00
4:05 am 04:05 Cloudy with Light Rain 59 15 58 14.4 96 96 Calm 30.03 1017 4 6 0.00 0.03
4:12 am 04:12 Cloudy with Light Rain 59 15 57 14 94 94 Calm 30.03 1017 4 6 0.00 0.00
4:20 am 04:20 Cloudy with Light Rain 59 15 57 14 94 94 ENE 3 6 30.03 1017 4 6 0.00 0.00
4:28 am 04:28 Cloudy with Light Rain 59 15 57 14 94 94 Calm 30.03 1017 2 3 0.00 0.00
4:35 am 04:35 Cloudy with Light Rain 59 15 58 14.4 96 96 Calm 30.03 1017 1 2 0.02 0.51
4:53 am 04:53 Cloudy with Heavy Rain 60 15.6 59 15 96 96 E 5 7 30.01 1016 1 2 0.28 7.11
5:11 am 05:11 Cloudy with Nearby Thunderstorms 62 16.7 61 16.1 96 96 S 5 7 30.00 1016 1 2 0.03 0.76
5:25 am 05:25 Cloudy with Heavy Rain 62 16.7 60 15.6 93 93 W 12 19 30.06 1018 1 2 0.16 4.06
5:36 am 05:36 Cloudy with Nearby Thunderstorms 63 17 61 16 94 94 WNW 7 11 30.03 1017 2 3 0.00 0.00
5:40 am 05:40 Cloudy with Thunderstorms 63 17 61 16 94 94 VRB 6 9 30.03 1017 3 4 0.00 0.00
5:48 am 05:48 Cloudy with Thunderstorms 63 17 61 16 94 94 S 6 9 30.03 1017 5 8 0.00 0.00
5:53 am 05:53 Cloudy with Thunderstorms 62 16.7 60 15.6 93 93 SSW 6 9 30.04 1017 6 10 0.32 8.13
5:56 am 05:56 Cloudy with Rain 63 17 61 16 94 94 SSW 6 9 30.03 1017 6 10 0.00 0.00
6:05 am 06:05 Cloudy with Nearby Thunderstorms 61 16.1 60 15.6 97 97 S 3 6 30.03 1017 4 6 0.05 1.27
6:20 am 06:20 Cloudy with Rain 61 16 59 15 94 94 SSE 5 7 30.03 1017 7 11 0.00 0.00
6:53 am 06:53 Cloudy with Rain 62 16.7 60 15.6 93 93 S 6 9 30.04 1017 6 10 0.18 4.57
7:09 am 07:09 Cloudy with Rain 62 16.7 60 15.6 93 93 SSW 5 7 30.06 1018 6 10 0.03 0.76
7:17 am 07:17 Cloudy with Light Rain 61 16.1 60 15.6 97 97 S 5 7 30.06 1018 9 14 0.03 0.76
7:32 am 07:32 Cloudy with Rain 61 16 61 16 100 100 S 6 9 30.06 1018 6 10 0.00 0.00
7:53 am 07:53 Cloudy with Rain 61 16.1 59 15 93 93 SW 3 6 30.04 1017 6 10 0.11 2.79
8:43 am 08:43 Cloudy with Light Rain 61 16.1 59 15 93 93 SSW 5 7 30.06 1018 10 16 0.04 1.02
8:53 am 08:53 Cloudy with Light Rain 61 16.1 59 15 93 93 SSW 5 7 30.06 1018 10 16 0.04 1.02
9:08 am 09:08 Cloudy 61 16.1 59 15 93 93 S 6 9 30.06 1018 10 16 0.00 0.03
9:24 am 09:24 Cloudy 61 16.1 59 15 93 93 SSW 3 6 30.06 1018 10 16 0.00 0.03
9:31 am 09:31 Cloudy 61 16.1 59 15 93 93 WSW 3 6 30.06 1018 10 16 0.00 0.03
9:53 am 09:53 Cloudy 61 16.1 59 15 93 93 SSW 5 7 30.06 1018 10 16 0.00 0.03
10:53 am 10:53 Cloudy 62 16.7 58 14.4 86 86 WSW 7 11 30.06 1018 10 16 0.00 0.00
11:53 am 11:53 Mostly Cloudy 62 16.7 58 14.4 86 86 SW 7 11 30.05 1018 10 16 0.00 0.00
12:53 pm 12:53 Mostly Cloudy 63 17.2 56 13.3 78 78 SW 7 11 30.04 1017 10 16 0.00 0.00
1:53 pm 13:53 Mostly Cloudy 63 17.2 54 12.2 73 73 WSW 12 19 30.04 1017 10 16 0.00 0.00
2:00 pm 14:00 Mostly Cloudy 63 17 54 12 73 73 W 17 28 30.06 1018 10 16 0.00 0.00
2:36 pm 14:36 Mostly Cloudy 63 17 52 11 68 68 W 14 22 30.09 1019 10 16 0.00 0.00
2:53 pm 14:53 Mostly Cloudy 62 16.7 48 8.9 60 60 WSW 13 20 30.07 1018 10 16 0.00 0.00
3:53 pm 15:53 Sunny 59 15 45 7.2 60 60 W 12 19 30.11 1020 10 16 0.00 0.00
4:53 pm 16:53 Partly Cloudy 57 13.9 42 5.6 58 58 W 14 22 30.16 1021 10 16 0.00 0.00
5:53 pm 17:53 Mostly Clear 53 11.7 39 3.9 59 59 WNW 12 19 30.21 1023 10 16 0.00 0.00
6:53 pm 18:53 Mostly Clear 49 9.4 37 2.8 64 64 NW 17 28 30.24 1024 10 16 0.00 0.00
7:53 pm 19:53 Mostly Clear 47 8.3 35 1.7 63 63 WNW 15 24 30.29 1026 10 16 0.00 0.00
8:53 pm 20:53 Clear 46 7.8 35 1.7 66 66 W 9 15 30.31 1026 10 16 0.00 0.00
9:53 pm 21:53 Clear 45 7.2 35 1.7 68 68 WNW 12 19 30.32 1027 10 16 0.00 0.00
10:53 pm 22:53 Clear 44 6.7 36 2.2 73 73 W 8 13 30.33 1027 10 16 0.00 0.00
11:53 pm 23:53 Clear 44 6.7 35 1.7 71 71 WNW 12 19 30.35 1028 10 16 0.00 0.00

Powered by AerisWeather